FW1924 Weather Reports


Display with metric or nautical units.
time (UTC)temp
F
wind
direction
speed
MPH
gust
MPH
rain 1hr
in
rain 24hr
in
rain mn
in
humidity
%
barometer
mb
20260507124530 49 196 7.0 16.0 0.00 0.00 0.00 39 1013.1
20260507123029 49 194 8.0 17.0 0.00 0.00 0.00 39 1013.1
20260507121519 48 202 8.0 12.0 0.00 0.00 0.00 41 1013.1
20260507120035 48 190 8.0 15.0 0.00 0.00 0.00 42 1013.0
20260507114508 48 202 7.0 12.0 0.00 0.00 0.00 42 1013.0
20260507113026 49 198 6.0 9.0 0.00 0.00 0.00 39 1013.1
20260507111558 49 189 8.0 13.0 0.00 0.00 0.00 39 1013.4
20260507110054 49 186 5.0 12.0 0.00 0.00 0.00 40 1013.5
20260507104540 49 181 6.0 12.0 0.00 0.00 0.00 41 1013.6
20260507103033 49 163 9.0 15.0 0.00 0.00 0.00 40 1013.6
20260507101522 49 186 7.0 15.0 0.00 0.00 0.00 41 1013.6
20260507100010 49 183 8.0 15.0 0.00 0.00 0.00 41 1013.6
20260507094600 48 184 7.0 12.0 0.00 0.00 0.00 43 1013.8
20260507093057 49 171 7.0 14.0 0.00 0.00 0.00 43 1014.1
20260507091548 49 182 9.0 14.0 0.00 0.00 0.00 43 1014.1
20260507090038 48 180 8.0 12.0 0.00 0.00 0.00 43 1014.2
20260507084528 48 168 6.0 10.0 0.00 0.14 0.00 43 1014.3
20260507083021 48 179 6.0 11.0 0.00 0.14 0.00 43 1014.5
20260507081521 48 187 5.0 9.0 0.00 0.14 0.00 44 1014.6
20260507080009 48 188 4.0 9.0 0.00 0.14 0.00 44 1014.7
20260507074605 48 169 5.0 8.0 0.00 0.14 0.00 44 1014.9
20260507073116 48 184 5.0 9.0 0.00 0.14 0.00 44 1015.0
20260507071539 49 188 5.0 10.0 0.00 0.14 0.00 43 1015.0
20260507070034 49 187 6.0 11.0 0.00 0.14 0.00 42 1015.1
20260507064520 49 223 7.0 11.0 0.00 0.14 0.00 41 1015.2
20260507063010 49 193 6.0 9.0 0.00 0.14 0.00 41 1015.1
20260507061603 50 196 4.0 9.0 0.00 0.14 0.00 41 1015.0
20260507060022 50 193 5.0 10.0 0.00 0.14 0.00 40 1015.0
20260507054514 50 193 5.0 9.0 0.00 0.14 0.14 39 1015.0
20260507053011 50 184 4.0 8.0 0.00 0.14 0.14 37 1014.9
20260507051502 50 223 3.0 8.0 0.00 0.14 0.14 37 1014.8
20260507044554 50 228 3.0 6.0 0.00 0.14 0.14 38 1015.1
20260507043049 50 222 3.0 6.0 0.00 0.14 0.14 38 1015.1
20260507041543 51 228 3.0 6.0 0.00 0.14 0.14 38 1015.1
20260507040032 51 230 3.0 6.0 0.00 0.14 0.14 38 1015.0
20260507034527 51 224 3.0 7.0 0.00 0.14 0.14 37 1015.2
20260507033011 51 225 1.0 5.0 0.00 0.14 0.14 37 1015.1
20260507031512 51 218 2.0 6.0 0.00 0.14 0.14 38 1014.8
20260507030004 51 209 2.0 4.0 0.00 0.14 0.14 37 1014.6
20260507024604 52 28 0.0 2.0 0.00 0.14 0.14 44 1014.6
20260507023004 54 28 0.0 1.0 0.00 0.14 0.14 38 1014.6
20260507021504 56 28 0.0 1.0 0.00 0.14 0.14 33 1014.5
20260507020005 58 28 0.0 3.0 0.00 0.14 0.14 29 1014.6
20260507014557 60 28 2.0 5.0 0.00 0.14 0.14 26 1014.6
20260507013103 61 337 0.0 4.0 0.00 0.14 0.14 25 1014.7
20260507011541 62 13 2.0 6.0 0.00 0.14 0.14 26 1014.7
20260507010039 62 355 3.0 10.0 0.00 0.14 0.14 24 1014.7
20260507004518 62 342 5.0 11.0 0.00 0.14 0.14 24 1014.8
20260507003012 62 311 5.0 12.0 0.00 0.14 0.14 24 1014.8
20260507001511 62 355 7.0 11.0 0.00 0.14 0.14 23 1014.8
20260507000002 62 328 7.0 13.0 0.00 0.14 0.14 23 1014.7
20260506234601 62 330 8.0 14.0 0.00 0.14 0.14 24 1014.7
20260506233045 62 309 11.0 17.0 0.00 0.14 0.14 25 1014.7
20260506231538 63 345 7.0 14.0 0.00 0.14 0.14 24 1014.9
20260506230031 63 329 7.0 15.0 0.00 0.14 0.14 24 1014.7
20260506224527 63 327 9.0 17.0 0.00 0.14 0.14 25 1014.9
20260506223013 63 295 9.0 17.0 0.00 0.14 0.14 26 1015.2
20260506221504 62 256 6.0 22.0 0.00 0.14 0.14 27 1015.4
20260506220108 62 271 12.0 18.0 0.00 0.14 0.14 27 1015.3
20260506214556 62 272 8.0 22.0 0.00 0.14 0.14 29 1015.4
20260506213048 62 346 5.0 18.0 0.00 0.14 0.14 28 1015.6
20260506211550 62 330 8.0 14.0 0.00 0.14 0.14 28 1015.8
20260506210030 62 269 10.0 16.0 0.00 0.14 0.14 28 1015.6
20260506204520 61 316 10.0 19.0 0.00 0.14 0.14 30 1015.8
20260506203013 60 314 5.0 16.0 0.00 0.14 0.14 32 1015.6
20260506201528 60 326 10.0 16.0 0.00 0.14 0.14 32 1015.7
20260506200019 59 9 10.0 21.0 0.00 0.14 0.14 31 1015.7
20260506194513 59 348 11.0 22.0 0.00 0.14 0.14 30 1015.5
20260506193002 59 327 10.0 17.0 0.00 0.14 0.14 32 1015.6
20260506191600 58 325 10.0 17.0 0.00 0.14 0.14 32 1015.6
20260506190051 58 321 10.0 16.0 0.00 0.14 0.14 33 1015.6
20260506184541 57 273 9.0 22.0 0.00 0.14 0.14 32 1015.7
20260506183036 57 335 13.0 19.0 0.00 0.14 0.14 31 1015.9
20260506181521 56 5 9.0 19.0 0.00 0.14 0.14 35 1015.6
20260506180011 55 329 9.0 22.0 0.00 0.14 0.14 33 1015.8
20260506174601 54 332 12.0 21.0 0.00 0.14 0.14 31 1015.8
20260506173117 54 314 12.0 19.0 0.00 0.14 0.14 34 1015.7
20260506171539 54 345 11.0 23.0 0.00 0.14 0.14 34 1015.5
20260506170032 53 320 13.0 23.0 0.00 0.14 0.14 30 1015.2
20260506164521 52 355 14.0 20.0 0.00 0.14 0.14 30 1014.9
20260506163009 51 331 11.0 21.0 0.00 0.14 0.14 36 1014.7
20260506161505 50 333 15.0 25.0 0.00 0.14 0.14 40 1014.5
20260506160009 49 338 16.0 24.0 0.00 0.14 0.14 40 1014.1
20260506154519 48 319 13.0 25.0 0.00 0.15 0.14 46 1013.9
20260506153109 48 327 9.0 21.0 0.00 0.15 0.14 49 1013.7
20260506151517 47 355 14.0 24.0 0.00 0.15 0.14 47 1013.5
20260506150005 46 334 12.0 21.0 0.00 0.15 0.14 48 1013.2
20260506144554 46 329 14.0 21.0 0.00 0.15 0.14 55 1013.3
20260506143052 45 328 10.0 15.0 0.00 0.15 0.14 62 1013.0
20260506141544 44 342 6.0 11.0 0.00 0.15 0.14 66 1013.0
20260506140044 43 5 5.0 10.0 0.00 0.15 0.14 69 1012.8
20260506134540 41 346 4.0 9.0 0.00 0.15 0.14 74 1012.6
20260506133030 40 304 2.0 6.0 0.00 0.15 0.14 78 1012.5
20260506131539 39 253 2.0 4.0 0.00 0.15 0.14 78 1012.0
20260506130008 39 242 1.0 2.0 0.00 0.15 0.14 78 1011.8